• In Deutschland
  • Länderverzeichnis
  • Für 7 Tage
  • Wassertemperatur
  • Satellitenkarten
  • Wetterkarte
  • Widgets
  • user-avatar
    Anmelden

    Stündliche Wetter Villavicencio

    Heute, 17 Januar, Mittwoch

    Zeit Temperatur Niederschläge Wind Luftdruck Luftfeuchtigkeit
    00:00 +22°C° 1,9 mm 0 m/S 718 mmHg 88%
    01:00 +22°C° 1,9 mm 0 m/S 718 mmHg 89%
    02:00 +22°C° 1,2 mm 0 m/S 717 mmHg 90%
    03:00 +24°C° 1,2 mm 1 m/S 717 mmHg 91%
    04:00 +24°C° 1,2 mm 1 m/S 717 mmHg 93%
    05:00 +24°C° 0,3 mm 1 m/S 718 mmHg 92%
    06:00 +24°C° 0,3 mm 1 m/S 718 mmHg 91%
    07:00 +24°C° 0,3 mm 1 m/S 718 mmHg 90%
    08:00 +25°C° 0,3 mm 1 m/S 719 mmHg 87%
    09:00 +25°C° 0,3 mm 1 m/S 719 mmHg 84%
    10:00 +26°C° 0,3 mm 1 m/S 719 mmHg 82%
    11:00 +26°C° 0,6 mm 1 m/S 719 mmHg 82%
    12:00 +26°C° 0,6 mm 1 m/S 718 mmHg 83%
    13:00 +26°C° 0,6 mm 1 m/S 718 mmHg 83%
    14:00 +27°C° 0,4 mm 1 m/S 717 mmHg 81%
    15:00 +27°C° 0,4 mm 1 m/S 716 mmHg 79%
    16:00 +27°C° 0,4 mm 1 m/S 716 mmHg 77%
    17:00 +26°C° 0,4 mm 1 m/S 716 mmHg 81%
    18:00 +24°C° 0,4 mm 0 m/S 716 mmHg 85%
    19:00 +23°C° 0,4 mm 0 m/S 716 mmHg 88%
    20:00 +22°C° 0,3 mm 0 m/S 717 mmHg 87%
    21:00 +24°C° 0,3 mm 1 m/S 717 mmHg 87%
    22:00 +24°C° 0,3 mm 1 m/S 718 mmHg 86%
    23:00 +24°C° 0,1 mm 1 m/S 718 mmHg 85%

    Morgen, 18 Januar, Donnerstag

    Zeit Temperatur Niederschläge Wind Luftdruck Luftfeuchtigkeit
    00:00 +23°C° 0,1 mm 1 m/S 718 mmHg 84%
    01:00 +23°C° 0,1 mm 1 m/S 717 mmHg 84%
    02:00 +23°C° 0,1 mm 1 m/S 717 mmHg 83%
    03:00 +23°C° 0,1 mm 1 m/S 717 mmHg 83%
    04:00 +23°C° 0,1 mm 1 m/S 717 mmHg 82%
    05:00 +23°C° 0,1 mm 1 m/S 717 mmHg 82%
    06:00 +23°C° 0,1 mm 1 m/S 718 mmHg 81%
    07:00 +22°C° 0,1 mm 0 m/S 718 mmHg 81%
    08:00 +26°C° 0,1 mm 1 m/S 719 mmHg 75%
    09:00 +27°C° 0,1 mm 1 m/S 719 mmHg 70%
    10:00 +29°C° 0,1 mm 1 m/S 719 mmHg 65%
    11:00 +29°C° 0,4 mm 2 m/S 719 mmHg 66%
    12:00 +30°C° 0,4 mm 2 m/S 718 mmHg 66%
    13:00 +30°C° 0,4 mm 2 m/S 717 mmHg 67%
    14:00 +29°C° 1 mm 2 m/S 716 mmHg 71%
    15:00 +29°C° 1 mm 2 m/S 716 mmHg 76%
    16:00 +28°C° 1 mm 2 m/S 715 mmHg 81%
    17:00 +27°C° 0,8 mm 1 m/S 715 mmHg 85%
    18:00 +26°C° 0,8 mm 1 m/S 716 mmHg 89%
    19:00 +23°C° 0,8 mm 0 m/S 716 mmHg 92%
    20:00 +23°C° 0,6 mm 0 m/S 717 mmHg 92%
    21:00 +23°C° 0,6 mm 0 m/S 717 mmHg 91%
    22:00 +23°C° 0,6 mm 0 m/S 718 mmHg 90%
    23:00 +22°C° 0,6 mm 0 m/S 718 mmHg 89%

    übermorgen, 19 Januar, Freitag

    Zeit Temperatur Niederschläge Wind Luftdruck Luftfeuchtigkeit
    00:00 +22°C° 0,6 mm 0 m/S 718 mmHg 89%
    01:00 +22°C° 0,6 mm 0 m/S 717 mmHg 89%
    02:00 +22°C° 0,5 mm 0 m/S 717 mmHg 88%
    03:00 +22°C° 0,5 mm 0 m/S 717 mmHg 88%
    04:00 +21°C° 0,5 mm 0 m/S 717 mmHg 87%
    05:00 +24°C° 0,3 mm 1 m/S 717 mmHg 87%
    06:00 +24°C° 0,3 mm 1 m/S 718 mmHg 86%
    07:00 +24°C° 0,3 mm 1 m/S 718 mmHg 86%
    08:00 +25°C° 0,3 mm 1 m/S 719 mmHg 82%
    09:00 +26°C° 0,3 mm 1 m/S 719 mmHg 78%
    10:00 +27°C° 0,3 mm 1 m/S 719 mmHg 75%
    11:00 +27°C° 0,6 mm 1 m/S 719 mmHg 75%
    12:00 +27°C° 0,6 mm 1 m/S 718 mmHg 75%
    13:00 +28°C° 0,6 mm 1 m/S 717 mmHg 75%
    14:00 +28°C° 0,3 mm 1 m/S 716 mmHg 74%
    15:00 +28°C° 0,3 mm 1 m/S 716 mmHg 72%
    16:00 +28°C° 0,3 mm 1 m/S 715 mmHg 71%
    17:00 +27°C° 0,2 mm 1 m/S 716 mmHg 75%
    18:00 +26°C° 0,2 mm 1 m/S 716 mmHg 80%
    19:00 +23°C° 0,2 mm 0 m/S 716 mmHg 84%
    20:00 +23°C° 0,2 mm 0 m/S 717 mmHg 83%
    21:00 +25°C° 0,2 mm 1 m/S 717 mmHg 82%
    22:00 +25°C° 0,2 mm 1 m/S 718 mmHg 81%
    23:00 +24°C° 0,1 mm 1 m/S 718 mmHg 81%

    20 Januar, Samstag

    Zeit Temperatur Niederschläge Wind Luftdruck Luftfeuchtigkeit
    00:00 +24°C° 0,1 mm 1 m/S 717 mmHg 80%
    01:00 +24°C° 0,1 mm 1 m/S 717 mmHg 80%
    02:00 +24°C° 0,2 mm 1 m/S 717 mmHg 80%
    03:00 +23°C° 0,2 mm 1 m/S 716 mmHg 80%
    04:00 +23°C° 0,2 mm 1 m/S 716 mmHg 80%
    05:00 +23°C° 0,1 mm 1 m/S 717 mmHg 79%
    06:00 +24°C° 0,1 mm 1 m/S 717 mmHg 78%
    07:00 +24°C° 0,1 mm 1 m/S 718 mmHg 78%
    08:00 +26°C° 0,1 mm 1 m/S 718 mmHg 71%
    09:00 +28°C° 0,1 mm 1 m/S 719 mmHg 65%
    10:00 +30°C° 0,1 mm 2 m/S 719 mmHg 59%
    11:00 +30°C° 0,1 mm 2 m/S 718 mmHg 58%
    12:00 +31°C° 0,1 mm 2 m/S 718 mmHg 57%
    13:00 +31°C° 0,1 mm 2 m/S 717 mmHg 56%
    14:00 +31°C° 0,2 mm 2 m/S 716 mmHg 60%
    15:00 +30°C° 0,2 mm 2 m/S 715 mmHg 64%
    16:00 +30°C° 0,2 mm 2 m/S 714 mmHg 67%
    17:00 +28°C° 0,6 mm 1 m/S 715 mmHg 74%
    18:00 +27°C° 0,6 mm 1 m/S 715 mmHg 81%
    19:00 +25°C° 0,6 mm 1 m/S 716 mmHg 88%
    20:00 +25°C° 0,4 mm 1 m/S 716 mmHg 87%
    21:00 +25°C° 0,4 mm 1 m/S 717 mmHg 85%
    22:00 +24°C° 0,4 mm 1 m/S 717 mmHg 84%
    23:00 +24°C° 0 mm 1 m/S 717 mmHg 83%

    21 Januar, Sonntag

    Zeit Temperatur Niederschläge Wind Luftdruck Luftfeuchtigkeit
    00:00 +24°C° 0 mm 1 m/S 717 mmHg 82%
    01:00 +24°C° 0 mm 1 m/S 717 mmHg 82%
    02:00 +24°C° 0 mm 1 m/S 717 mmHg 81%
    03:00 +24°C° 0 mm 1 m/S 716 mmHg 81%
    04:00 +24°C° 0 mm 1 m/S 716 mmHg 81%
    05:00 +24°C° 0 mm 1 m/S 717 mmHg 79%
    06:00 +24°C° 0 mm 1 m/S 717 mmHg 76%
    07:00 +24°C° 0 mm 1 m/S 718 mmHg 73%
    08:00 +26°C° 0 mm 1 m/S 718 mmHg 66%
    09:00 +28°C° 0 mm 2 m/S 718 mmHg 58%
    10:00 +30°C° 0 mm 2 m/S 718 mmHg 51%
    11:00 +31°C° 0 mm 2 m/S 717 mmHg 51%
    12:00 +31°C° 0 mm 2 m/S 717 mmHg 51%
    13:00 +33°C° 0 mm 3 m/S 716 mmHg 51%
    14:00 +32°C° 0 mm 2 m/S 715 mmHg 53%
    15:00 +31°C° 0 mm 2 m/S 714 mmHg 56%
    16:00 +31°C° 0 mm 2 m/S 713 mmHg 58%
    17:00 +29°C° 0,1 mm 2 m/S 714 mmHg 65%
    18:00 +28°C° 0,1 mm 1 m/S 714 mmHg 72%
    19:00 +26°C° 0,1 mm 1 m/S 715 mmHg 79%
    20:00 +26°C° 0,1 mm 1 m/S 715 mmHg 78%
    21:00 +25°C° 0,1 mm 1 m/S 716 mmHg 78%
    22:00 +25°C° 0,1 mm 1 m/S 716 mmHg 78%
    23:00 +25°C° 0 mm 1 m/S 716 mmHg 78%

    22 Januar, Montag

    Zeit Temperatur Niederschläge Wind Luftdruck Luftfeuchtigkeit
    00:00 +25°C° 0 mm 1 m/S 716 mmHg 78%
    01:00 +24°C° 0 mm 1 m/S 716 mmHg 78%
    02:00 +24°C° 0 mm 1 m/S 716 mmHg 78%
    03:00 +24°C° 0 mm 1 m/S 716 mmHg 79%
    04:00 +24°C° 0 mm 1 m/S 716 mmHg 80%
    05:00 +24°C° 0 mm 1 m/S 716 mmHg 79%
    06:00 +24°C° 0 mm 1 m/S 717 mmHg 78%
    07:00 +24°C° 0 mm 1 m/S 717 mmHg 77%
    08:00 +27°C° 0 mm 1 m/S 717 mmHg 67%
    09:00 +29°C° 0 mm 2 m/S 718 mmHg 57%
    10:00 +31°C° 0 mm 2 m/S 718 mmHg 46%
    11:00 +32°C° 0 mm 2 m/S 717 mmHg 45%
    12:00 +32°C° 0 mm 2 m/S 716 mmHg 44%
    13:00 +34°C° 0 mm 3 m/S 715 mmHg 42%
    14:00 +34°C° 0 mm 2 m/S 714 mmHg 45%
    15:00 +32°C° 0 mm 2 m/S 714 mmHg 47%
    16:00 +32°C° 0 mm 2 m/S 713 mmHg 49%
    17:00 +30°C° 0 mm 2 m/S 713 mmHg 56%
    18:00 +28°C° 0 mm 1 m/S 714 mmHg 64%
    19:00 +26°C° 0 mm 1 m/S 714 mmHg 71%
    20:00 +26°C° 0 mm 1 m/S 714 mmHg 70%
    21:00 +25°C° 0 mm 1 m/S 715 mmHg 69%
    22:00 +25°C° 0 mm 1 m/S 716 mmHg 68%
    23:00 +25°C° 0 mm 1 m/S 716 mmHg 69%
    Mehr zeigen